Location: Carrizalito
(10.3833°N, 67.0217°W)
Time: 23:01:21
(UTC+00:00)

Meteor 1-11 Rocket - Pass Details

Date: 03 July 2022
Orbit: 830 x 917 km, 81.2° (Epoch: 07 August)

Event Time Altitude Azimuth Distance (km) Brightness Sun altitude
Exits shadow 09:11:12 14° 211° (SSW) 2,308 5.5 -14.1°
Maximum altitude 09:15:53 41° 276° (W) 1,304 4.3 -13.1°
Drops below altitude 10° 09:21:26 10° 345° (NNW) 2,596 6.4 -11.9°
Sets 09:24:02 0° 353° (N) 3,531 7.2 -11.3°
